Track STARLINK-1926 now! 10-day predictions STARLINK-1926 is classified as:
1 46757U 20074U 21109.17050586 -.00000130 00000-0 10175-4 0 9990 2 46757 53.0552 62.1334 0000725 43.5269 316.5777 15.06396865 27490